Location: Downe
(51.3167°N, 0.0500°E)
Time: 18:18:04
(UTC+00:00)

Cosmos 1802 Rocket - Pass Details

Date: 17 November 2019
Orbit: 954 x 1012 km, 82.9° (Epoch: 05 December)

Event Time Altitude Azimuth Distance (km) Brightness Sun altitude
Rises 04:56:33 0° 177° (S) 3,734 7.1 -22.1°
Reaches altitude 10° 04:59:05 10° 174° (S) 2,787 6.5 -21.7°
Maximum altitude 05:05:26 66° 94° (E) 1,102 4.5 -20.7°
Drops below altitude 10° 05:11:46 10° 14° (NNE) 2,789 6.5 -19.7°
Sets 05:14:19 0° 12° (NNE) 3,736 7.1 -19.3°
